Tracking 18980 objects as of 20-Feb-2018
HD Live streaming from Space Station
objects crossing your sky now

FENGYUN 1C DEB

Track FENGYUN 1C DEB now!
10-day predictions


NORAD ID: 35225
Int'l Code: 1999-025DQH
Perigee: 800.4 km
Apogee: 879.9 km
Inclination: 103.3 °
Period: 101.6 minutes
Semi major axis: 7211 km
RCS: 0.0074 m2 (small)
Launch date: May 10, 1999
Source: People's Republic of China (PRC)
Launch site: Taiyaun Space Center, China (TSC)

Note: This is SATELLITE DEBRIS
aabbcc
Your satellite tracking list
Your tracking list is empty




NASA's NSSDC Master Catalog

Two Line Element Set (TLE):
1 35225U 99025DQH 18050.16694685 +.00001328 +00000-0 +68247-3 0  9995
2 35225 103.2888 170.8206 0055135 332.3523 027.4705 14.17744157199592
Source of the keplerian elements: AFSPC